Location: *
(28.2408°N, 53.4600°E)
Time: 05:35:05
(UTC+00:00)

GPS 2-04 Rocket1 - Pass Details

Date: 22 September 2019
Orbit: 420 x 552 km, 35.6° (Epoch: 15 October)

Event Time Altitude Azimuth Distance (km) Brightness Sun altitude
Rises 16:04:04 0° 232° (SW) 2,488 6.7 -22.8°
Reaches altitude 10° 16:06:14 10° 227° (SW) 1,638 5.6 -23.3°
Enters shadow 16:08:16 29° 211° (SSW) 912 4.0 -23.7°
